Location: Blackfoot
(53.5367°N, 112.7800°W)
Time: 21:34:56
(UTC-06:00)

Amateur Radio Satellites - All Passes

Search period start: 05 May 2016 21:04
Search period end: 06 May 2016 21:04
Location: Blackfoot, 53.5367°N, 112.7800°W

Satellite Date Start Highest point End Downlink Frequencies (MHz)
Time Altitude Azimuth
DELFI C3 05 May 21:11:29 21:14:37 23° 61° (ENE) 21:17:46 145.870
Oscar 11 05 May 21:13:00 21:17:05 44° 67° (ENE) 21:21:12 145.826/435.025
HUMSAT D 05 May 21:13:52 21:16:11 15° 55° (NE) 21:18:30 437.325/437.525
CUTE 1.7 + AOD 2 05 May 21:14:02 21:18:04 44° 262° (W) 21:22:07 437.475
DOVE 4 05 May 21:23:12 21:27:03 20° 273° (W) 21:30:57 437.250
FUNcube-1 05 May 21:29:15 21:33:35 52° 70° (ENE) 21:37:51 145.935
COMPASS 1 05 May 21:32:16 21:36:17 50° 260° (W) 21:40:21 437.405
SEEDS 05 May 21:35:25 21:39:17 36° 264° (W) 21:43:10 437.485
CINEMA 3 05 May 21:41:03 21:45:29 31° 267° (W) 21:49:53 145.822/145.860
O/OREOS (USA 219) 05 May 21:46:26 21:48:07 12° 25° (NNE) 21:49:48 437.305
UWE-3 05 May 21:50:12 21:54:48 73° 257° (WSW) 21:59:18 435.000/436.395/437.385
AAUSAT CUBESAT 2 05 May 22:00:09 22:03:54 33° 264° (W) 22:07:40 437.432
BEESAT 3 05 May 22:03:18 22:06:10 19° 346° (NNW) 22:09:02 437.485
STRAND 1 05 May 22:04:24 22:09:09 40° 297° (WNW) 22:13:53 437.568
CUBEBUG 2 05 May 22:05:12 22:09:39 41° 263° (W) 22:14:01 437.445
CUBEBUG 1 05 May 22:09:54 22:11:10 11° 49° (NE) 22:12:24 437.445
Cosmos 2504 05 May 22:10:04 22:17:04 54° 289° (WNW) 22:24:10 435.465 / 435.565
AO-85 05 May 22:12:09 22:15:59 23° 245° (WSW) 22:19:32 145.980
ZACube-1 05 May 22:13:20 22:17:48 62° 259° (W) 22:22:10 437.345
ESTCUBE 1 05 May 22:13:29 22:16:06 15° 53° (NE) 22:18:44 437.505/2401.250
BEESAT 2 05 May 22:16:56 22:19:55 20° 344° (NNW) 22:22:55 435.950
RS-15 05 May 22:17:06 22:28:06 58° 118° (ESE) 22:39:42 29.354- 29.394
CANX-2 05 May 22:21:11 22:22:25 11° 276° (W) 22:23:38 2200.000
HO-68 05 May 22:29:02 22:34:10 21° 274° (W) 22:39:21 435.675
DX 1 05 May 22:29:56 22:32:25 15° 53° (NE) 22:34:53 434.975-435.025
UKube-1 05 May 22:30:37 22:32:36 13° 51° (NE) 22:34:35 .
PRISM 05 May 22:33:01 22:37:10 62° 290° (WNW) 22:41:18 437.425
AIST 2 05 May 22:36:45 22:40:45 46° 323° (NW) 22:44:48 435.215
PCSat 05 May 22:37:58 22:42:52 32° 30° (NNE) 22:47:45 145.827
TIGRISAT 05 May 22:43:32 22:45:26 13° 85° (E) 22:47:17 435.000
VELOX 1 05 May 22:43:56 22:47:12 20° 57° (ENE) 22:50:30 145.980
DELFI C3 05 May 22:45:28 22:49:17 46° 261° (W) 22:53:07 145.870
GONETS M04 05 May 22:46:38 22:49:37 12° 63° (ENE) 22:52:36
HUMSAT D 05 May 22:47:03 22:51:15 88° 86° (E) 22:55:26 437.325/437.525
YUBILEINY 05 May 22:49:24 22:55:02 18° 318° (NW) 23:00:43 435.215
Oscar 11 05 May 22:49:46 22:53:25 26° 267° (W) 22:57:05 145.826/435.025
SPROUT 05 May 22:54:33 22:56:05 12° 51° (NE) 22:57:37 437.525
FUNcube-1 05 May 23:06:33 23:10:07 23° 268° (W) 23:13:39 145.935
ANTELSAT 05 May 23:08:14 23:11:37 22° 91° (E) 23:14:56 437.575/2403.000
AISAT 05 May 23:15:29 23:19:34 36° 64° (ENE) 23:23:42 437.250
50 SAT 05 May 23:17:08 23:20:26 33° 66° (ENE) 23:23:44 437.505
O/OREOS (USA 219) 05 May 23:24:41 23:28:55 36° 49° (NE) 23:33:05 437.305
UWE-3 05 May 23:30:36 23:32:03 11° 276° (W) 23:33:29 435.000/436.395/437.385
CUBEBUG 1 05 May 23:42:14 23:46:33 55° 69° (ENE) 23:50:54 437.445
BEESAT 3 05 May 23:42:30 23:45:12 17° 10° (N) 23:47:55 437.485
ESTCUBE 1 05 May 23:47:46 23:52:15 82° 74° (ENE) 23:56:48 437.505/2401.250
DUCHIFAT 1 05 May 23:54:05 23:56:08 13° 86° (E) 23:58:10 145.980
BEESAT 2 05 May 23:56:25 23:59:07 17° 8° (N) 00:01:49 435.950
QB50P2 05 May 23:58:50 00:01:36 17° 89° (E) 00:04:22 145.880/145.840
POLYITAN 1 06 May 00:01:02 00:03:50 17° 89° (E) 00:06:36 437.675
UNISAT 6 06 May 00:02:10 00:06:31 65° 102° (ESE) 00:10:46 437.425
POPSAT HIP 1 06 May 00:02:39 00:05:29 17° 89° (E) 00:08:17 437.405
DX 1 06 May 00:03:34 00:07:56 81° 74° (ENE) 00:12:22 434.975-435.025
UKube-1 06 May 00:03:35 00:07:54 69° 71° (ENE) 00:12:14 .
QB50P1 06 May 00:05:25 00:08:24 18° 90° (E) 00:11:22 145.935-145.965
Cosmos 2504 06 May 00:08:35 00:12:30 15° 316° (NW) 00:16:29 435.465 / 435.565
PRISM 06 May 00:10:22 00:11:42 11° 309° (NW) 00:13:02 437.425
DANDE 06 May 00:12:48 00:15:02 12° 45° (NE) 00:17:25 436.750
Cosmos 2499 06 May 00:15:35 00:20:11 19° 75° (ENE) 00:24:51 435.465 / 435.565
AIST 2 06 May 00:17:05 00:20:10 20° 346° (NNW) 00:23:15 435.215
TIGRISAT 06 May 00:18:29 00:22:52 87° 111° (ESE) 00:27:08 435.000
VELOX 1 06 May 00:18:49 00:23:15 70° 256° (WSW) 00:27:45 145.980
PCSat 06 May 00:21:22 00:26:51 81° 233° (SW) 00:32:16 145.827
BUGSAT 1 06 May 00:21:28 00:23:23 13° 86° (E) 00:25:17 437.445
JAS-2 06 May 00:25:18 00:28:01 12° 74° (ENE) 00:30:44 435.910
HUMSAT D 06 May 00:25:35 00:27:31 13° 274° (W) 00:29:27 437.325/437.525
SPROUT 06 May 00:26:58 00:31:14 62° 71° (ENE) 00:35:31 437.525
RS-15 06 May 00:28:59 00:40:33 68° 327° (NNW) 00:52:47 29.354- 29.394
GONETS M04 06 May 00:35:48 00:44:08 49° 88° (E) 00:52:28
NANOSAT C BR1 06 May 00:37:41 00:41:33 33° 96° (E) 00:45:23 145.865
CUSAT 1 06 May 00:39:09 00:45:08 28° 58° (ENE) 00:51:46 437.405
ANTELSAT 06 May 00:44:25 00:48:41 53° 291° (WNW) 00:52:51 437.575/2403.000
TISAT 1 06 May 00:48:15 00:52:11 37° 65° (ENE) 00:56:07 437.305
ITUPSAT 1 06 May 00:49:35 00:51:57 14° 49° (NE) 00:54:20 437.325
50 SAT 06 May 00:51:11 00:54:17 26° 265° (W) 00:57:25 437.505
AIST 1 06 May 00:51:15 00:55:30 56° 96° (E) 00:59:49
AISAT 06 May 00:51:59 00:56:05 35° 264° (W) 01:00:13 437.250
SWISSCUBE 06 May 00:56:21 00:59:18 17° 52° (NE) 01:02:15 437.505
O/OREOS (USA 219) 06 May 01:04:09 01:08:24 40° 250° (WSW) 01:12:35 437.305
CUBEBUG 1 06 May 01:19:43 01:23:10 22° 269° (W) 01:26:39 437.445
BEESAT 3 06 May 01:20:14 01:23:56 36° 33° (NNE) 01:27:37 437.485
ESTCUBE 1 06 May 01:27:00 01:29:42 15° 273° (W) 01:32:23 437.505/2401.250
BEESAT 06 May 01:27:56 01:31:47 25° 58° (ENE) 01:35:39 436.000
DUCHIFAT 1 06 May 01:28:13 01:32:29 88° 286° (WNW) 01:36:42 145.980
QB50P2 06 May 01:33:40 01:37:55 70° 289° (WNW) 01:42:07 145.880/145.840
BEESAT 2 06 May 01:34:22 01:38:03 33° 31° (NNE) 01:41:41 435.950
POLYITAN 1 06 May 01:35:53 01:40:07 69° 289° (WNW) 01:44:19 437.675
POPSAT HIP 1 06 May 01:37:30 01:41:45 68° 288° (WNW) 01:45:56 437.405
UNISAT 6 06 May 01:39:39 01:42:50 20° 302° (WNW) 01:45:59 437.425
QB50P1 06 May 01:40:24 01:44:37 63° 290° (WNW) 01:48:47 145.935-145.965
UKube-1 06 May 01:41:30 01:44:26 18° 270° (W) 01:47:23 .
DX 1 06 May 01:42:08 01:44:44 15° 272° (W) 01:47:20 434.975-435.025
Oscar 19 06 May 01:52:05 01:55:41 18° 88° (E) 01:59:15 437.125/150
DANDE 06 May 01:53:29 01:59:29 41° 67° (ENE) 02:06:47 436.750
BUGSAT 1 06 May 01:55:12 01:59:26 90° 334° (NNW) 02:03:36 437.445
TIGRISAT 06 May 01:56:19 01:58:59 16° 305° (NW) 02:01:37 435.000
AIST 2 06 May 01:57:02 02:00:01 19° 10° (N) 02:03:00 435.215
VELOX 1 06 May 01:59:39 02:00:36 11° 276° (W) 02:01:33 145.980
SPROUT 06 May 02:04:28 02:07:36 19° 270° (W) 02:10:45 437.525
Cosmos 2499 06 May 02:05:02 02:12:05 81° 97° (E) 02:19:22 435.465 / 435.565
PCSat 06 May 02:05:56 02:09:28 18° 253° (WSW) 02:13:00 145.827
JAS-2 06 May 02:07:27 02:14:58 48° 96° (E) 02:22:29 435.910
NANOSAT C BR1 06 May 02:13:28 02:17:19 34° 296° (WNW) 02:21:07 145.865
Gurwin Techsat 1B 06 May 02:15:48 02:18:27 14° 84° (E) 02:21:04 435.225
CUSAT 1 06 May 02:20:53 02:28:04 90° 78° (ENE) 02:36:10 437.405
ANTELSAT 06 May 02:23:53 02:24:28 10° 312° (NW) 02:25:02 437.575/2403.000
TISAT 1 06 May 02:24:06 02:27:55 31° 265° (W) 02:31:44 437.305
ITUPSAT 1 06 May 02:24:15 02:28:58 65° 69° (ENE) 02:33:42 437.325
AIST 1 06 May 02:30:05 02:33:28 22° 297° (WNW) 02:36:54
SWISSCUBE 06 May 02:31:40 02:36:25 82° 73° (ENE) 02:41:13 437.505
GONETS M04 06 May 02:32:23 02:40:59 53° 292° (WNW) 02:49:36
KKS-1 06 May 02:35:43 02:38:41 18° 55° (NE) 02:41:40 437.445
STARS 06 May 02:43:47 02:45:45 13° 50° (NE) 02:47:43 437.465
RS-15 06 May 02:43:53 02:55:22 49° 359° (N) 03:07:15 29.354- 29.394
YUBILEINY 06 May 02:56:41 02:59:36 12° 28° (NNE) 03:02:30 435.215
BEESAT 3 06 May 02:57:57 03:01:47 47° 234° (SW) 03:05:34 437.485
MOZHAYETS 4 06 May 03:04:34 03:07:54 20° 57° (ENE) 03:11:15
BEESAT 06 May 03:04:34 03:09:16 60° 258° (WSW) 03:14:01 436.000
DUCHIFAT 1 06 May 03:05:11 03:07:35 15° 306° (NW) 03:09:59 145.980
QB50P2 06 May 03:11:10 03:12:59 13° 308° (NW) 03:14:47 145.880/145.840
BEESAT 2 06 May 03:12:11 03:16:07 55° 232° (SW) 03:20:01 435.950
POLYITAN 1 06 May 03:13:26 03:15:11 12° 308° (NW) 03:16:55 437.675
POPSAT HIP 1 06 May 03:15:03 03:16:47 12° 308° (NW) 03:18:30 437.405
QB50P1 06 May 03:18:09 03:19:36 12° 309° (NW) 03:21:03 145.935-145.965
ITAMSAT 1 06 May 03:18:27 03:22:09 19° 89° (E) 03:25:51 435.822/435.867
Oscar 19 06 May 03:30:26 03:35:41 84° 288° (WNW) 03:40:54 437.125/150
BUGSAT 1 06 May 03:31:47 03:34:14 15° 306° (NW) 03:36:40 437.445
AIST 2 06 May 03:35:36 03:39:32 39° 34° (NNE) 03:43:27 435.215
DANDE 06 May 03:36:12 03:42:34 58° 263° (W) 03:50:20 436.750
JAS-2 06 May 03:52:35 04:00:04 54° 297° (WNW) 04:07:38 435.910
AO-7 06 May 03:52:57 03:58:53 21° 86° (E) 04:04:46 29.400- 29.500
Gurwin Techsat 1B 06 May 03:54:01 03:59:22 73° 104° (ESE) 04:04:41 435.225
Cosmos 2499 06 May 04:00:19 04:06:10 27° 303° (WNW) 04:12:12 435.465 / 435.565
ITUPSAT 1 06 May 04:03:38 04:07:15 21° 269° (W) 04:10:54 437.325
CUSAT 1 06 May 04:03:48 04:09:36 27° 276° (W) 04:15:54 437.405
KKS-1 06 May 04:10:13 04:14:43 85° 255° (WSW) 04:19:15 437.445
SWISSCUBE 06 May 04:11:47 04:14:51 17° 272° (W) 04:17:56 437.505
STARS 06 May 04:16:56 04:21:19 66° 70° (ENE) 04:25:45 437.465
GONETS M04 06 May 04:34:50 04:40:24 18° 319° (NW) 04:45:58
MOZHAYETS 4 06 May 04:40:05 04:44:38 72° 257° (WSW) 04:49:13
YUBILEINY 06 May 04:52:17 05:00:03 34° 59° (ENE) 05:07:46 435.215
ITAMSAT 1 06 May 04:57:03 05:02:15 80° 289° (WNW) 05:07:27 435.822/435.867
RS-15 06 May 04:58:12 05:10:17 65° 31° (NNE) 05:22:36 29.354- 29.394
CUBESAT XI-V 06 May 04:58:49 05:02:50 30° 62° (ENE) 05:06:53 437.345
Oscar 19 06 May 05:10:46 05:14:20 19° 308° (NW) 05:17:53 437.125/150
AIST 2 06 May 05:14:08 05:18:07 45° 235° (SW) 05:22:03 435.215
DANDE 06 May 05:21:04 05:24:30 15° 281° (W) 05:28:14 436.750
HORYU 2 06 May 05:22:52 05:26:07 20° 90° (E) 05:29:20 437.375
Gurwin Techsat 1B 06 May 05:34:39 05:38:53 25° 305° (NW) 05:43:06 435.225
JAS-2 06 May 05:38:35 05:43:36 19° 319° (NW) 05:48:43 435.910
AO-7 06 May 05:44:45 05:53:08 75° 108° (ESE) 06:01:29 29.400- 29.500
Cosmos 2491 06 May 05:47:39 05:54:17 25° 75° (ENE) 06:00:55 435.465 / 435.565
KKS-1 06 May 05:49:49 05:52:00 13° 274° (W) 05:54:11 437.445
STARS 06 May 05:54:56 05:58:08 19° 270° (W) 06:01:21 437.465
Cosmos 2504 06 May 06:00:16 06:06:13 24° 55° (NE) 06:12:25 435.465 / 435.565
STRAND 1 06 May 06:09:58 06:13:47 22° 54° (NE) 06:17:37 437.568
MOZHAYETS 4 06 May 06:21:22 06:22:41 11° 277° (W) 06:24:00
CUBESAT XI-V 06 May 06:35:40 06:40:05 45° 262° (W) 06:44:35 437.345
LilacSat-2 06 May 06:37:09 06:37:59 11° 85° (E) 06:38:48 437.200
ITAMSAT 1 06 May 06:37:36 06:41:01 18° 309° (NW) 06:44:27 435.822/435.867
YUBILEINY 06 May 06:49:05 06:57:47 77° 264° (W) 07:06:29 435.215
CUTE-I 06 May 06:53:17 06:57:20 22° 90° (E) 07:01:22 437.470
HORYU 2 06 May 06:58:42 07:03:06 63° 290° (WNW) 07:07:27 437.375
BRITE-PL 06 May 07:07:19 07:12:25 32° 92° (E) 07:17:24 437.365/2234.400
SO-50 06 May 07:09:01 07:13:22 32° 121° (ESE) 07:17:45 436.795
RS-15 06 May 07:11:09 07:23:05 64° 239° (WSW) 07:35:07 29.354- 29.394
NOAA 15 06 May 07:22:35 07:27:45 48° 99° (E) 07:32:53 137.62
ISS 06 May 07:26:48 07:29:10 19° 147° (SSE) 07:31:32 145.825
DOVE 4 06 May 07:37:29 07:40:38 16° 84° (E) 07:43:40 437.250
NOAA 18 06 May 07:37:45 07:43:08 54° 101° (E) 07:48:29 137.9125
AO-7 06 May 07:37:59 07:45:26 38° 311° (NW) 07:52:53 29.400- 29.500
Cubesat XI-IV 06 May 07:38:22 07:43:29 45° 99° (E) 07:48:36 437.490
Cosmos 2491 06 May 07:41:02 07:49:54 85° 99° (E) 07:58:49 435.465 / 435.565
STRAND 1 06 May 07:47:21 07:52:27 80° 255° (WSW) 07:57:35 437.568
Cosmos 2504 06 May 07:53:12 08:00:47 84° 78° (ENE) 08:08:55 435.465 / 435.565
PRISM 06 May 07:53:43 07:57:20 31° 63° (ENE) 08:01:00 437.425
GOMX 1 06 May 07:59:34 08:04:47 43° 96° (E) 08:09:45 467.674
HO-68 06 May 08:00:35 08:04:10 14° 81° (E) 08:07:45 435.675
LilacSat-2 06 May 08:09:06 08:12:57 88° 106° (ESE) 08:16:45 437.200
CANX-2 06 May 08:21:51 08:23:38 12° 85° (E) 08:25:25 2200.000
CUTE-I 06 May 08:32:38 08:37:58 74° 290° (WNW) 08:43:17 437.470
HORYU 2 06 May 08:37:03 08:38:51 12° 310° (NW) 08:40:38 437.375
GONETS M04 06 May 08:41:36 08:45:05 13° 30° (NNE) 08:48:34
M-CUBED/EXP-1 PRIME 06 May 08:45:13 08:48:58 39° 104° (ESE) 08:52:25 437.505
BRITE-PL 06 May 08:45:34 08:51:08 56° 292° (WNW) 08:56:38 437.365/2234.400
YUBILEINY 06 May 08:47:10 08:53:11 21° 287° (WNW) 08:59:13 435.215
SO-50 06 May 08:48:48 08:53:41 61° 321° (NW) 08:58:33 436.795
CUTE 1.7 + AOD 2 06 May 08:52:48 08:56:03 21° 91° (E) 08:59:17 437.475
AUBIESAT-1 06 May 09:00:24 09:04:11 46° 105° (ESE) 09:07:41 437.475
ISS 06 May 09:01:59 09:05:09 49° 166° (SSE) 09:08:20 145.825
NOAA 15 06 May 09:02:38 09:07:26 35° 300° (WNW) 09:12:13 137.62
COMPASS 1 06 May 09:09:21 09:12:10 17° 89° (E) 09:15:00 437.405
SEEDS 06 May 09:12:48 09:16:16 24° 93° (E) 09:19:43 437.485
DOVE 4 06 May 09:13:56 09:19:09 89° 106° (ESE) 09:24:04 437.250
Cubesat XI-IV 06 May 09:18:40 09:23:31 37° 299° (WNW) 09:28:20 437.490
NOAA 18 06 May 09:18:48 09:23:37 33° 302° (WNW) 09:28:25 137.9125
RS-15 06 May 09:25:06 09:33:03 21° 264° (W) 09:41:03 29.354- 29.394
PRISM 06 May 09:28:50 09:32:37 35° 263° (W) 09:36:27 437.425
CINEMA 3 06 May 09:28:54 09:33:25 46° 98° (E) 09:37:41 145.822/145.860
STRAND 1 06 May 09:29:45 09:32:29 14° 275° (W) 09:35:15 437.568
AO-7 06 May 09:31:18 09:36:02 17° 336° (NNW) 09:40:47 29.400- 29.500
UNISAT 6 06 May 09:31:38 09:35:04 21° 58° (ENE) 09:38:27 437.425
UWE-3 06 May 09:34:48 09:37:13 15° 87° (E) 09:39:36 435.000/436.395/437.385
AAUSAT CUBESAT 2 06 May 09:35:51 09:39:19 25° 93° (E) 09:42:45 437.432
GOMX 1 06 May 09:37:45 09:42:50 39° 296° (WNW) 09:47:42 467.674
Cosmos 2491 06 May 09:40:18 09:47:56 31° 304° (NW) 09:55:36 435.465 / 435.565
LilacSat-2 06 May 09:44:48 09:46:42 13° 304° (NW) 09:48:35 437.200
HO-68 06 May 09:46:22 09:53:28 61° 103° (ESE) 10:00:32 435.675
TIGRISAT 06 May 09:47:18 09:51:06 26° 61° (ENE) 09:54:51 435.000
Cosmos 2504 06 May 09:47:26 09:53:24 26° 280° (W) 09:59:41 435.465 / 435.565
CUBEBUG 2 06 May 09:49:50 09:53:32 27° 93° (E) 09:57:08 437.445
Cosmos 2499 06 May 09:55:12 09:59:00 14° 42° (NE) 10:02:54 435.465 / 435.565
CANX-2 06 May 09:55:55 10:00:11 87° 109° (ESE) 10:04:25 2200.000
ZACube-1 06 May 09:56:17 09:58:58 16° 88° (E) 10:01:39 437.345
NANOSAT C BR1 06 May 10:03:51 10:04:52 11° 50° (NE) 10:05:54 145.865
ANTELSAT 06 May 10:12:36 10:16:56 43° 67° (ENE) 10:21:11 437.575/2403.000
CUTE-I 06 May 10:13:50 10:17:14 17° 310° (NW) 10:20:37 437.470
DELFI C3 06 May 10:17:39 10:20:04 15° 88° (E) 10:22:28 145.870
M-CUBED/EXP-1 PRIME 06 May 10:19:59 10:23:25 28° 305° (NW) 10:26:39 437.505
BRITE-PL 06 May 10:25:29 10:28:30 15° 313° (NW) 10:31:32 437.365/2234.400
CUTE 1.7 + AOD 2 06 May 10:28:05 10:32:13 54° 290° (WNW) 10:36:20 437.475
Oscar 11 06 May 10:29:40 10:33:42 37° 97° (E) 10:37:42 145.826/435.025
SO-50 06 May 10:30:55 10:35:03 26° 344° (NNW) 10:39:09 436.795
AUBIESAT-1 06 May 10:35:16 10:38:29 24° 307° (NW) 10:41:30 437.475
GONETS M04 06 May 10:37:29 10:45:26 36° 60° (ENE) 10:53:18
ISS 06 May 10:38:12 10:41:26 60° 186° (S) 10:44:41 145.825
COMPASS 1 06 May 10:44:02 10:48:11 64° 288° (WNW) 10:52:18 437.405
JAS-2 06 May 10:45:50 10:49:17 14° 34° (NE) 10:52:52 435.910
FUNcube-1 06 May 10:47:05 10:51:08 44° 98° (E) 10:55:06 145.935
SEEDS 06 May 10:48:11 10:52:12 45° 292° (WNW) 10:56:13 437.485
DUCHIFAT 1 06 May 10:51:26 10:54:50 24° 60° (ENE) 10:58:15 145.980
AIST 1 06 May 10:51:40 10:55:35 30° 67° (ENE) 10:59:28
DOVE 4 06 May 10:52:32 10:56:10 20° 306° (NW) 10:59:42 437.250
QB50P2 06 May 10:57:07 11:00:49 29° 63° (ENE) 11:04:32 145.880/145.840
POLYITAN 1 06 May 10:59:18 11:03:02 30° 63° (ENE) 11:06:46 437.675
POPSAT HIP 1 06 May 11:00:47 11:04:31 30° 63° (ENE) 11:08:16 437.405
QB50P1 06 May 11:03:32 11:07:20 31° 64° (ENE) 11:11:09 145.935-145.965
CINEMA 3 06 May 11:06:22 11:10:23 29° 299° (WNW) 11:14:13 145.822/145.860
UNISAT 6 06 May 11:06:49 11:11:25 68° 257° (WSW) 11:15:55 437.425
UWE-3 06 May 11:10:00 11:14:18 78° 288° (WNW) 11:18:28 435.000/436.395/437.385
AAUSAT CUBESAT 2 06 May 11:11:02 11:14:59 43° 292° (WNW) 11:18:56 437.432
BUGSAT 1 06 May 11:16:33 11:19:53 22° 59° (ENE) 11:23:13 437.445
GOMX 1 06 May 11:18:40 11:19:30 10° 318° (NW) 11:20:19 467.674
AO-7 06 May 11:22:32 11:25:35 12° 4° (N) 11:28:38 29.400- 29.500
TIGRISAT 06 May 11:23:06 11:27:35 51° 260° (W) 11:32:01 435.000
CUBEBUG 2 06 May 11:26:15 11:30:21 42° 293° (WNW) 11:34:20 437.445
ZACube-1 06 May 11:31:34 11:35:48 69° 287° (WNW) 11:39:54 437.345
CANX-2 06 May 11:32:57 11:35:29 16° 304° (NW) 11:38:01 2200.000
HO-68 06 May 11:34:26 11:40:59 40° 305° (NW) 11:47:30 435.675
NANOSAT C BR1 06 May 11:35:34 11:39:45 57° 70° (ENE) 11:43:58 145.865
ESTCUBE 1 06 May 11:35:48 11:37:24 12° 84° (E) 11:39:00 437.505/2401.250
Oscar 19 06 May 11:39:31 11:41:28 12° 45° (NE) 11:43:25 437.125/150
Cosmos 2491 06 May 11:46:13 11:48:42 11° 335° (NNW) 11:51:11 435.465 / 435.565
Cosmos 2499 06 May 11:47:04 11:54:25 46° 68° (ENE) 12:02:17 435.465 / 435.565
ANTELSAT 06 May 11:49:45 11:53:47 30° 265° (W) 11:57:47 437.575/2403.000
DELFI C3 06 May 11:51:25 11:55:25 69° 287° (WNW) 11:59:24 145.870
HUMSAT D 06 May 11:59:40 12:03:46 69° 103° (ESE) 12:07:50 437.325/437.525
VELOX 1 06 May 12:03:40 12:06:17 15° 87° (E) 12:08:53 145.980
Oscar 11 06 May 12:05:57 12:09:48 32° 296° (WNW) 12:13:38 145.826/435.025
Gurwin Techsat 1B 06 May 12:07:55 12:08:36 10° 41° (NE) 12:09:17 435.225
SO-50 06 May 12:13:02 12:16:57 23° 8° (N) 12:20:47 436.795
50 SAT 06 May 12:14:35 12:17:08 18° 91° (E) 12:19:42 437.505
ISS 06 May 12:14:43 12:17:35 29° 206° (SSW) 12:20:28 145.825
COMPASS 1 06 May 12:21:39 12:22:58 11° 308° (NW) 12:24:18 437.405
FUNcube-1 06 May 12:23:43 12:27:13 26° 298° (WNW) 12:30:40 145.935
DUCHIFAT 1 06 May 12:26:06 12:30:17 53° 260° (W) 12:34:29 145.980
JAS-2 06 May 12:26:23 12:32:25 42° 58° (ENE) 12:39:10 435.910
AIST 1 06 May 12:29:11 12:33:18 39° 268° (W) 12:37:23
AO-85 06 May 12:30:49 12:35:35 31° 119° (ESE) 12:40:16 145.980
QB50P2 06 May 12:32:28 12:36:31 41° 262° (W) 12:40:37 145.880/145.840
GONETS M04 06 May 12:34:21 12:43:05 73° 265° (W) 12:51:44
POLYITAN 1 06 May 12:34:41 12:38:45 40° 262° (W) 12:42:50 437.675
AISAT 06 May 12:35:29 12:39:25 29° 94° (E) 12:43:19 437.250
POPSAT HIP 1 06 May 12:36:10 12:40:13 40° 262° (W) 12:44:18 437.405
QB50P1 06 May 12:39:04 12:43:04 37° 263° (W) 12:47:05 145.935-145.965
UWE-3 06 May 12:47:58 12:50:04 13° 307° (NW) 12:52:07 435.000/436.395/437.385
UNISAT 6 06 May 12:48:07 12:48:59 10° 277° (W) 12:49:51 437.425
BUGSAT 1 06 May 12:50:46 12:54:57 57° 259° (WSW) 12:59:11 437.445
CUBEBUG 1 06 May 13:00:34 13:04:52 46° 99° (E) 13:09:08 437.445
ITAMSAT 1 06 May 13:06:32 13:08:52 13° 46° (NE) 13:11:13 435.822/435.867
ZACube-1 06 May 13:09:41 13:11:19 12° 308° (NW) 13:12:56 437.345
AO-7 06 May 13:09:42 13:15:20 21° 31° (NNE) 13:20:59 29.400- 29.500
ESTCUBE 1 06 May 13:10:29 13:15:03 75° 104° (ESE) 13:19:35 437.505/2401.250
NANOSAT C BR1 06 May 13:12:38 13:15:51 20° 269° (W) 13:19:05 145.865
Oscar 19 06 May 13:14:42 13:19:41 49° 66° (ENE) 13:24:42 437.125/150
UKube-1 06 May 13:20:17 13:24:33 51° 101° (E) 13:28:47 .
DX 1 06 May 13:21:27 13:25:50 62° 102° (ESE) 13:30:11 434.975-435.025
HO-68 06 May 13:23:27 13:26:55 14° 328° (NNW) 13:30:24 435.675
DELFI C3 06 May 13:28:16 13:29:35 11° 307° (NW) 13:30:52 145.870
HUMSAT D 06 May 13:36:13 13:38:59 18° 302° (WNW) 13:41:44 437.325/437.525
VELOX 1 06 May 13:38:52 13:43:23 84° 285° (WNW) 13:47:51 145.980
Cosmos 2499 06 May 13:40:19 13:47:41 51° 269° (W) 13:55:37 435.465 / 435.565
Gurwin Techsat 1B 06 May 13:42:19 13:47:14 40° 63° (ENE) 13:52:11 435.225
SPROUT 06 May 13:42:28 13:46:40 49° 100° (E) 13:50:50 437.525
O/OREOS (USA 219) 06 May 13:47:12 13:48:06 11° 96° (E) 13:49:01 437.305
50 SAT 06 May 13:47:39 13:51:13 50° 290° (WNW) 13:54:46 437.505
SO-50 06 May 13:53:56 13:58:34 43° 32° (NNE) 14:03:03 436.795
TISAT 1 06 May 14:01:23 14:04:59 26° 94° (E) 14:08:33 437.305
AO-85 06 May 14:10:24 14:15:51 70° 318° (NW) 14:21:08 145.980
JAS-2 06 May 14:11:03 14:17:18 55° 262° (W) 14:24:25 435.910
AISAT 06 May 14:11:48 14:16:04 43° 294° (WNW) 14:20:17 437.250
ITUPSAT 1 06 May 14:21:03 14:21:51 10° 83° (E) 14:22:38 437.325
SWISSCUBE 06 May 14:26:54 14:29:13 13° 85° (E) 14:31:32 437.505
GONETS M04 06 May 14:32:35 14:38:21 20° 289° (WNW) 14:44:06
CUBEBUG 1 06 May 14:37:11 14:41:00 28° 299° (WNW) 14:44:46 437.445
ITAMSAT 1 06 May 14:42:17 14:47:19 54° 67° (ENE) 14:52:22 435.822/435.867
ESTCUBE 1 06 May 14:48:08 14:51:23 20° 304° (WNW) 14:54:39 437.505/2401.250
Oscar 19 06 May 14:54:36 14:59:13 32° 266° (W) 15:03:53 437.125/150
UKube-1 06 May 14:56:49 15:00:22 25° 300° (WNW) 15:03:56 .
DX 1 06 May 14:58:18 15:01:41 22° 302° (WNW) 15:05:03 434.975-435.025
AO-7 06 May 14:58:31 15:06:26 52° 56° (NE) 15:14:22 29.400- 29.500
BEESAT 06 May 14:58:35 15:02:20 22° 91° (E) 15:06:04 436.000
PCSat 06 May 15:10:13 15:14:29 24° 110° (ESE) 15:18:46 145.827
DANDE 06 May 15:13:23 15:15:26 14° 79° (E) 15:17:47 436.750
VELOX 1 06 May 15:16:33 15:19:13 16° 307° (NW) 15:21:52 145.980
SPROUT 06 May 15:18:53 15:22:24 25° 299° (WNW) 15:25:55 437.525
O/OREOS (USA 219) 06 May 15:22:03 15:26:37 66° 115° (ESE) 15:31:11 437.305
Gurwin Techsat 1B 06 May 15:22:13 15:27:13 41° 263° (W) 15:32:16 435.225
CUSAT 1 06 May 15:32:04 15:36:11 55° 95° (E) 15:41:41 437.405
SO-50 06 May 15:34:33 15:39:11 50° 234° (SW) 15:43:39 436.795
Cosmos 2499 06 May 15:36:18 15:39:03 12° 292° (WNW) 15:41:51 435.465 / 435.565
TISAT 1 06 May 15:36:48 15:40:49 43° 293° (WNW) 15:44:48 437.305
Cosmos 2491 06 May 15:47:02 15:53:16 20° 45° (NE) 15:59:28 435.465 / 435.565
AO-85 06 May 15:52:30 15:57:11 29° 341° (NNW) 16:01:41 145.980
ITUPSAT 1 06 May 15:55:54 16:00:40 64° 103° (ESE) 16:05:25 437.325
NOAA 18 06 May 15:55:59 15:56:33 10° 38° (NE) 15:57:07 137.9125
KKS-1 06 May 15:56:32 15:58:23 12° 85° (E) 16:00:14 437.445
JAS-2 06 May 16:01:40 16:04:16 12° 286° (WNW) 16:06:58 435.910
SWISSCUBE 06 May 16:03:01 16:07:49 80° 105° (ESE) 16:12:36 437.505
ITAMSAT 1 06 May 16:22:39 16:27:06 29° 267° (W) 16:31:35 435.822/435.867
HORYU 2 06 May 16:26:32 16:30:42 40° 65° (ENE) 16:34:53 437.375
MOZHAYETS 4 06 May 16:29:21 16:32:31 18° 89° (E) 16:35:39
BEESAT 06 May 16:35:49 16:40:32 61° 291° (WNW) 16:45:14 436.000
CUTE-I 06 May 16:44:20 16:47:17 15° 47° (NE) 16:50:12 437.470
BRITE-PL 06 May 16:48:45 16:51:37 15° 47° (NE) 16:54:33 437.365/2234.400
AO-7 06 May 16:51:15 16:59:17 52° 258° (WSW) 17:07:23 29.400- 29.500
PCSat 06 May 16:51:55 16:57:22 79° 312° (NW) 17:02:51 145.827
DANDE 06 May 16:53:54 16:57:22 61° 288° (WNW) 17:02:02 436.750
HO-68 06 May 16:55:21 16:56:08 10° 22° (NNE) 16:56:55 435.675
O/OREOS (USA 219) 06 May 17:02:35 17:06:27 26° 317° (NW) 17:10:18 437.305
NOAA 15 06 May 17:10:34 17:15:02 29° 57° (ENE) 17:19:31 137.62
CUSAT 1 06 May 17:15:03 17:18:54 26° 305° (NW) 17:23:43 437.405
LilacSat-2 06 May 17:24:36 17:26:55 15° 58° (ENE) 17:29:14 437.200
Cubesat XI-IV 06 May 17:28:07 17:32:34 28° 57° (ENE) 17:37:00 437.490
NOAA 18 06 May 17:30:48 17:35:49 37° 60° (ENE) 17:40:49 137.9125
KKS-1 06 May 17:31:13 17:35:44 80° 105° (ESE) 17:40:12 437.445
ITUPSAT 1 06 May 17:34:21 17:38:09 24° 303° (WNW) 17:41:57 437.325
AO-85 06 May 17:34:55 17:39:08 24° 5° (N) 17:43:08 145.980
STARS 06 May 17:36:12 17:40:33 51° 101° (E) 17:44:50 437.465
GOMX 1 06 May 17:37:30 17:41:10 19° 52° (NE) 17:44:54 467.674
SWISSCUBE 06 May 17:41:41 17:45:07 20° 305° (NW) 17:48:32 437.505
Cosmos 2491 06 May 17:43:33 17:52:20 62° 72° (ENE) 18:01:01 435.465 / 435.565
M-CUBED/EXP-1 PRIME 06 May 18:03:10 18:07:04 27° 55° (NE) 18:10:49 437.505
YUBILEINY 06 May 18:03:12 18:10:10 28° 78° (ENE) 18:17:08 435.215
HORYU 2 06 May 18:03:23 18:07:22 31° 264° (W) 18:11:21 437.375
MOZHAYETS 4 06 May 18:05:37 18:10:12 72° 287° (WNW) 18:14:46
BEESAT 06 May 18:15:15 18:17:27 13° 311° (NW) 18:19:39 436.000
AUBIESAT-1 06 May 18:17:52 18:21:50 30° 56° (NE) 18:25:38 437.475
CUTE-I 06 May 18:21:09 18:26:24 62° 68° (ENE) 18:31:40 437.470
BRITE-PL 06 May 18:23:57 18:28:59 60° 69° (ENE) 18:34:25 437.365/2234.400
CUBESAT XI-V 06 May 18:25:34 18:29:44 30° 94° (E) 18:33:53 437.345
BEESAT 3 06 May 18:31:33 18:35:09 34° 123° (ESE) 18:38:46 437.485
HO-68 06 May 18:35:53 18:41:31 26° 47° (NE) 18:47:11 435.675
PCSat 06 May 18:36:54 18:41:35 28° 335° (NNW) 18:46:16 145.827
DANDE 06 May 18:40:52 18:41:48 11° 318° (NW) 18:42:48 436.750
BEESAT 2 06 May 18:47:25 18:50:57 31° 122° (ESE) 18:54:30 435.950
DOVE 4 06 May 18:48:02 18:52:41 33° 62° (ENE) 18:57:24 437.250
NOAA 15 06 May 18:49:17 18:54:30 61° 258° (WSW) 18:59:48 137.62
AO-7 06 May 18:51:00 18:54:13 12° 282° (WNW) 18:57:28 29.400- 29.500
Cosmos 2504 06 May 18:52:22 18:54:52 12° 68° (ENE) 18:57:22 435.465 / 435.565
LilacSat-2 06 May 18:56:53 19:00:45 76° 256° (WSW) 19:04:39 437.200
CINEMA 3 06 May 19:01:02 19:04:22 18° 55° (NE) 19:07:40 145.822/145.860
Cubesat XI-IV 06 May 19:07:01 19:12:18 64° 257° (WSW) 19:17:38 437.490
KKS-1 06 May 19:08:43 19:11:48 18° 305° (NW) 19:14:52 437.445
NOAA 18 06 May 19:11:06 19:16:25 47° 260° (W) 19:21:43 137.9125
STARS 06 May 19:13:02 19:16:41 25° 300° (WNW) 19:20:17 437.465
GOMX 1 06 May 19:13:10 19:18:26 80° 74° (ENE) 19:23:57 467.674
AO-85 06 May 19:16:06 19:20:54 39° 29° (NNE) 19:25:20 145.980
CANX-2 06 May 19:20:12 19:23:21 21° 59° (ENE) 19:26:31 2200.000
CUBEBUG 2 06 May 19:21:19 19:22:12 10° 49° (NE) 19:23:04 437.445
M-CUBED/EXP-1 PRIME 06 May 19:36:45 19:41:22 57° 252° (WSW) 19:45:49 437.505
RS-15 06 May 19:40:00 19:43:29 12° 87° (E) 19:46:58 29.354- 29.394
Cosmos 2491 06 May 19:40:52 19:48:52 41° 276° (W) 19:56:48 435.465 / 435.565
MOZHAYETS 4 06 May 19:44:15 19:46:38 14° 308° (NW) 19:49:00
CUTE 1.7 + AOD 2 06 May 19:51:21 19:55:07 33° 65° (ENE) 19:58:55 437.475
AUBIESAT-1 06 May 19:51:41 19:56:09 49° 253° (WSW) 20:00:28 437.475
STRAND 1 06 May 19:51:51 19:55:49 22° 90° (E) 19:59:46 437.568
YUBILEINY 06 May 19:57:16 20:06:01 85° 281° (W) 20:14:48 435.215
Oscar 11 06 May 19:57:41 19:59:10 12° 51° (NE) 20:00:40 145.826/435.025
CUTE-I 06 May 20:02:29 20:06:53 26° 268° (W) 20:11:17 437.470
CUBESAT XI-V 06 May 20:02:48 20:07:17 45° 293° (WNW) 20:11:46 437.345
BRITE-PL 06 May 20:03:32 20:07:53 27° 271° (W) 20:12:30 437.365/2234.400
COMPASS 1 06 May 20:06:00 20:09:29 27° 63° (ENE) 20:13:00 437.405
BEESAT 3 06 May 20:09:00 20:12:48 44° 324° (NW) 20:16:38 437.485
SEEDS 06 May 20:10:26 20:14:17 38° 66° (ENE) 20:18:09 437.485
FUNcube-1 06 May 20:14:48 20:17:06 14° 54° (NE) 20:19:22 145.935
HO-68 06 May 20:21:14 20:28:24 83° 68° (ENE) 20:35:36 435.675
PCSat 06 May 20:22:47 20:26:42 20° 0° (N) 20:30:39 145.827
BEESAT 2 06 May 20:24:48 20:28:42 48° 322° (NW) 20:32:36 435.950
DOVE 4 06 May 20:25:04 20:30:11 52° 262° (W) 20:35:24 437.250
AAUSAT CUBESAT 2 06 May 20:32:00 20:35:48 37° 66° (ENE) 20:39:38 437.432
NOAA 15 06 May 20:33:56 20:35:25 11° 278° (W) 20:36:55 137.62
CINEMA 3 06 May 20:35:50 20:40:52 86° 75° (ENE) 20:45:50 145.822/145.860
UWE-3 06 May 20:37:06 20:41:00 29° 63° (ENE) 20:44:49 435.000/436.395/437.385
Cosmos 2504 06 May 20:39:33 20:46:30 56° 92° (E) 20:53:32 435.465 / 435.565
Cubesat XI-IV 06 May 20:51:39 20:53:29 12° 278° (W) 20:55:19 437.490
GOMX 1 06 May 20:53:17 20:57:11 21° 274° (W) 21:01:13 467.674
CUBEBUG 2 06 May 20:53:21 20:57:54 50° 68° (ENE) 21:02:19 437.445
CANX-2 06 May 20:54:43 20:58:53 59° 259° (W) 21:03:04 2200.000
AIST 2 06 May 20:55:05 20:59:02 45° 125° (SE) 21:03:00 435.215
